This is the latest recevied weather packets stored in our database for station/object WC4PEM. If no packets are shown the sender has not sent any weather packets the latest 1 day(s).
| Time | Temp. | Humidity | Pressure | Rain* | Wind** | Luminosity | Snow |
|---|---|---|---|---|---|---|---|
| 1777980868 | 20.56° C | 88% | 1014.7 hPa | 0 mm | 2.24 m/s, 72° | - | - |
| 1777980568 | 20.56° C | 88% | 1014.5 hPa | 0 mm | 2.24 m/s, 77° | - | - |
| 1777980268 | 20.56° C | 89% | 1014.3 hPa | 0 mm | 1.79 m/s, 63° | - | - |
| 1777979968 | 20° C | 90% | 1014.4 hPa | 0 mm | 1.79 m/s, 79° | - | - |
| 1777979716 | 20° C | 91% | 1014.4 hPa | 0 mm | 1.34 m/s, 76° | - | - |
| 1777979668 | 20° C | 91% | 1014.4 hPa | 0 mm | 1.34 m/s, 76° | - | - |
| 1777979596 | 19.44° C | 91% | 1014.2 hPa | 0 mm | 1.34 m/s, 68° | - | - |
| 1777979368 | 20° C | 91% | 1014.3 hPa | 0 mm | 1.34 m/s, 76° | - | - |
| 1777979068 | 19.44° C | 91% | 1014.3 hPa | 0 mm | 1.34 m/s, 75° | - | - |
| 1777978768 | 19.44° C | 91% | 1014.2 hPa | 0 mm | 1.34 m/s, 63° | - | - |
| 1777978468 | 19.44° C | 91% | 1014.2 hPa | 0 mm | 1.34 m/s, 68° | - | - |
| 1777978399 | 19.44° C | 90% | 1014 hPa | 0 mm | 1.79 m/s, 48° | - | - |
| 1777978185 | 19.44° C | 91% | 1014.2 hPa | 0 mm | 1.79 m/s, 50° | - | - |
| 1777978168 | 19.44° C | 91% | 1014.1 hPa | 0 mm | 1.79 m/s, 63° | - | - |
| 1777977878 | 19.44° C | 91% | 1014.2 hPa | 0 mm | 1.79 m/s, 50° | - | - |
| 1777977568 | 19.44° C | 91% | 1014.1 hPa | 0 mm | 1.79 m/s, 40° | - | - |
| 1777977268 | 19.44° C | 90% | 1014 hPa | 0 mm | 1.79 m/s, 48° | - | - |
| 1777976968 | 19.44° C | 90% | 1014 hPa | 0 mm | 1.79 m/s, 59° | - | - |
| 1777976738 | 19.44° C | 90% | 1014 hPa | 0 mm | 1.79 m/s, 63° | - | - |
| 1777976668 | 19.44° C | 90% | 1014 hPa | 0 mm | 1.79 m/s, 63° | - | - |
| 1777976368 | 19.44° C | 90% | 1013.9 hPa | 0 mm | 1.34 m/s, 48° | - | - |
| 1777976068 | 19.44° C | 90% | 1014 hPa | 0 mm | 1.34 m/s, 61° | - | - |
| 1777975768 | 19.44° C | 90% | 1013.9 hPa | 0 mm | 1.34 m/s, 48° | - | - |
| 1777975643 | 19.44° C | 90% | 1013.8 hPa | 0 mm | 1.34 m/s, 72° | - | - |
| 1777975468 | 19.44° C | 90% | 1013.8 hPa | 0 mm | 1.34 m/s, 72° | - | - |
* Rain latest hour (hover to see other rain measurements)
** Current wind speed in m/s (hover to see current wind gust speed)